Simultaneous Nadir Overpasses (SNOs) Predictions

Prediction of SNOs between AQUA and METOP-A Satellite Orbit:

Table of predicted SNOs for the next 14.0 days since TLE Epoch: 6/1/2018
Index Date (AQUA) Time (AQUA) Lat,Lon (AQUA) SZA (AQUA ) Date (METOP-A) Time (METOP-A) Lat,Lon (METOP-A) SZA (METOP-A ) Distance(km) Time Diff (sec)
1 06/04/2018 05:44:08 73.68, 88.67 51.23 06/04/2018 05:43:03 73.65, 85.58 51.33 96.74 65
2 06/04/2018 06:33:47 -74.39,-105.30 128.02 06/04/2018 06:33:30 -74.37,-105.35 128.04 2.68 17
3 06/04/2018 07:23:16 74.45, 62.18 52.05 06/04/2018 07:24:08 74.46, 62.23 52.05 1.93 52
4 06/07/2018 01:18:24 73.81, 154.82 51.07 06/07/2018 01:17:17 73.77, 152.26 51.14 79.46 67
5 06/07/2018 02:08:01 -74.41, -38.91 128.30 06/07/2018 02:07:46 -74.39, -38.89 128.31 2.22 15
6 06/07/2018 02:57:29 74.43, 128.67 51.73 06/07/2018 02:58:25 74.43, 128.56 51.73 3.55 56
7 06/09/2018 20:52:40 73.90,-138.94 50.92 06/09/2018 20:51:32 73.88,-141.06 51.00 65.33 68
8 06/09/2018 21:42:15 -74.38, 27.59 128.57 06/09/2018 21:42:03 -74.41, 27.56 128.54 2.65 12
9 06/09/2018 22:31:44 74.46,-164.97 51.52 06/09/2018 22:32:42 74.45,-164.99 51.50 1.73 58
10 06/12/2018 16:26:57 74.05, -72.83 50.89 06/12/2018 16:25:47 74.00, -74.38 50.91 47.60 70
11 06/12/2018 17:16:30 -74.42, 93.94 128.72 06/12/2018 17:16:20 -74.42, 94.01 128.71 1.98 10
12 06/12/2018 18:05:58 74.46, -98.51 51.33 06/12/2018 18:06:59 74.46, -98.55 51.33 1.41 61
13 06/15/2018 12:01:12 74.15, -6.63 50.86 06/15/2018 12:00:01 74.11, -7.70 50.88 32.95 71
14 06/15/2018 12:50:43 -74.41, 160.40 128.86 06/15/2018 12:50:36 -74.43, 160.45 128.83 3.33 7




NCC Satellite Simultaneous Nadir Overpasses (SNOs) Prediction Service
